Hourly Data Report for October 03, 2016

All times are specified in Local Standard Time (LST). Add 1 hour to adjust for Daylight Saving Time where and when it is observed.

GRISE FIORD CLIMATE
NUNAVUT

76°25'22.040" N
82°54'08.020" W
44.50 m
2402351
71971
NGC

Download Data

Hourly Data (October 2016)
Hourly Data Report for October 3, 2016
Temp Definition
°C
Dew Point Temp Definition
°C
Rel Hum Definition
%
Wind Dir Definition
10's deg

Wind Spd Definition
km/h
Visibility Definition
km
Stn Press Definition
kPa
Hmdx Definition


Wind Chill Definition


Weather Definition


TIME
00:00 -3.2 -9.4 62 21 4   99.59   -5 LegendNANA
01:00 -2.9 -10.1 58 9 14   99.63   -8 LegendNANA
02:00 -2.7 -9.8 58 7 24   99.63   -9 LegendNANA
03:00 -2.6 -8.7 63 8 19   99.65   -8 LegendNANA
04:00 -3.4 -8.5 67 6 17   99.69   -9 LegendNANA
05:00 -3.9 -10.0 63 7 11   99.70   -8 LegendNANA
06:00 -4.6 -10.7 63 14 3   99.71   -6 LegendNANA
07:00 -4.3 -10.8 61 21 5   99.72   -6 LegendNANA
08:00 -4.3 -11.1 59 6 18   99.73   -10 LegendNANA
09:00 -4.2 -11.1 59 1 5   99.75   -6 LegendNANA
10:00 -4.4 -11.0 60 22 5   99.76   -7 LegendNANA
11:00 -4.5 -11.1 60 16 6   99.78   -7 LegendNANA
12:00 -5.7 -11.5 64 8 26   99.76   -13 LegendNANA
13:00 -5.8 -12.1 61 6 24   99.76   -13 LegendNANA
14:00 -5.9 -11.7 63 6 20   99.75   -13 LegendNANA
15:00 -5.1 -12.2 58 5 15   99.75   -11 LegendNANA
16:00 -4.9 -11.0 62 6 15   99.76   -10 LegendNANA
17:00 -5.3 -11.2 63 7 10   99.76   -10 LegendNANA
18:00 -6.1 -11.8 64 5 27   99.73   -14 LegendNANA
19:00 -6.1 -12.0 63 5 16   99.74   -12 LegendNANA
20:00 -7.1 -11.5 71 8 5   99.77   -10 LegendNANA
21:00 -7.5 -12.4 68 4 19   99.78   -15 LegendNANA
22:00 -7.6 -12.4 68 7 8   99.80   -12 LegendNANA
23:00 -8.2 -11.5 77 7 6   99.81   -11 LegendNANA

Notes on Data Quality.

Legend

  • E = Estimated
  • M = Missing
  • NA = Not Available
  • ‡ = Partner data that is not subject to review by the National Climate Archives
Date modified: